76542 UUDL-XUBS

Flight info

Callsign 76542
Flight time N/A
Altitude 32000
Route RIRAT T289 ADUSI P65 ROMTA N181 NATLO L856 GODBI DCT NEBSU KUDRE
Aircraft IL76/H-SDE3GHIJ2J3J5M1RVWXY/LB2D1

Departure

Time 2026-04-25 15:20
Airport Golden Ring Yaroslavl International Airport (UUDL)

Arrival

Time N/A
Airport XUBS
Time Latitude Longitude Altitude Speed Heading
2026-04-25 15:03 57.55420 40.14239 319 ft 0 kts 333°
2026-04-25 15:12 57.55430 40.14230 319 ft 5 kts 333°
2026-04-25 15:12 57.55477 40.14184 319 ft 6 kts 332°
2026-04-25 15:12 57.55512 40.14153 318 ft 10 kts 334°
2026-04-25 15:12 57.55567 40.14101 319 ft 14 kts 338°
2026-04-25 15:13 57.55664 40.14258 319 ft 24 kts 63°
2026-04-25 15:13 57.55825 40.14872 319 ft 22 kts 64°
2026-04-25 15:13 57.55912 40.15194 318 ft 29 kts 62°
2026-04-25 15:14 57.56000 40.15505 319 ft 24 kts 70°
2026-04-25 15:14 57.56077 40.15803 319 ft 29 kts 60°
2026-04-25 15:14 57.56191 40.16198 319 ft 41 kts 64°
2026-04-25 15:14 57.56301 40.16616 319 ft 30 kts 61°
2026-04-25 15:15 57.56381 40.16914 318 ft 21 kts 65°
2026-04-25 15:15 57.56447 40.17144 319 ft 21 kts 58°
2026-04-25 15:15 57.56491 40.17309 319 ft 17 kts 65°
2026-04-25 15:15 57.56565 40.17605 319 ft 30 kts 65°
2026-04-25 15:16 57.56615 40.17901 319 ft 6 kts 87°
2026-04-25 15:16 57.56617 40.17916 318 ft 0 kts 62°
2026-04-25 15:16 57.56618 40.17920 318 ft 0 kts 50°
2026-04-25 15:17 57.56644 40.17913 318 ft 6 kts 313°
2026-04-25 15:17 57.56649 40.17884 318 ft 0 kts 257°
2026-04-25 15:18 57.56619 40.17801 318 ft 19 kts 236°
2026-04-25 15:18 57.56599 40.17737 319 ft 0 kts 242°
2026-04-25 15:19 57.56512 40.17419 319 ft 61 kts 244°
2026-04-25 15:19 57.56343 40.16780 319 ft 100 kts 242°
2026-04-25 15:19 57.55816 40.14808 386 ft 148 kts 243°
2026-04-25 15:19 57.55335 40.13067 718 ft 151 kts 242°
2026-04-25 15:20 57.54846 40.11255 1039 ft 168 kts 244°
2026-04-25 15:20 57.54299 40.09220 1583 ft 184 kts 243°
2026-04-25 15:20 57.53676 40.06906 1899 ft 216 kts 243°
2026-04-25 15:20 57.52948 40.04205 2227 ft 249 kts 243°
2026-04-25 15:21 57.52117 40.01129 2538 ft 282 kts 243°
2026-04-25 15:21 57.51410 39.97506 2807 ft 312 kts 265°
2026-04-25 15:21 57.51817 39.93420 3119 ft 339 kts 295°
2026-04-25 15:21 57.53190 39.89687 3513 ft 359 kts 307°
2026-04-25 15:22 57.54570 39.85813 4310 ft 367 kts 304°
2026-04-25 15:22 57.55962 39.81874 5216 ft 370 kts 302°
2026-04-25 15:22 57.57329 39.77828 6076 ft 374 kts 302°
2026-04-25 15:22 57.58704 39.73696 6898 ft 378 kts 302°
2026-04-25 15:23 57.60097 39.69535 7692 ft 382 kts 302°
2026-04-25 15:23 57.61496 39.65321 8458 ft 387 kts 302°
2026-04-25 15:23 57.62912 39.61046 9201 ft 391 kts 302°
2026-04-25 15:23 57.64342 39.56731 9918 ft 395 kts 302°
2026-04-25 15:24 57.65785 39.52361 10610 ft 398 kts 302°
2026-04-25 15:24 57.67242 39.47942 11280 ft 402 kts 302°
2026-04-25 15:24 57.68698 39.43518 11922 ft 406 kts 302°
2026-04-25 15:24 57.69685 39.40514 12342 ft 408 kts 302°
2026-04-25 15:25 57.70890 39.35699 12873 ft 412 kts 283°
2026-04-25 15:25 57.70849 39.28611 13637 ft 415 kts 260°
2026-04-25 15:25 57.69870 39.23685 14123 ft 419 kts 239°
2026-04-25 15:25 57.68343 39.19035 14655 ft 422 kts 238°
2026-04-25 15:26 57.66740 39.14473 15166 ft 425 kts 236°
2026-04-25 15:26 57.65077 39.09885 15681 ft 428 kts 235°
2026-04-25 15:26 57.63388 39.05357 16179 ft 431 kts 235°
2026-04-25 15:26 57.61665 39.00788 16665 ft 434 kts 234°
2026-04-25 15:27 57.59908 38.96163 17140 ft 437 kts 234°
2026-04-25 15:27 57.58138 38.91531 17600 ft 440 kts 234°
2026-04-25 15:27 57.54584 38.82276 18470 ft 446 kts 234°
2026-04-25 15:28 57.52764 38.77555 18891 ft 449 kts 234°
2026-04-25 15:28 57.50947 38.72852 19296 ft 451 kts 234°
2026-04-25 15:28 57.49129 38.68158 19686 ft 454 kts 234°
2026-04-25 15:28 57.47288 38.63415 20067 ft 456 kts 234°
2026-04-25 15:29 57.45423 38.58618 20440 ft 459 kts 234°
2026-04-25 15:29 57.43562 38.53840 20798 ft 461 kts 234°
2026-04-25 15:29 57.41674 38.49003 21145 ft 464 kts 234°
2026-04-25 15:29 57.39782 38.44165 21472 ft 466 kts 234°
2026-04-25 15:30 57.37886 38.39329 21775 ft 468 kts 234°
2026-04-25 15:30 57.35982 38.34481 22051 ft 470 kts 233°
2026-04-25 15:30 57.34048 38.29567 22302 ft 471 kts 233°
2026-04-25 15:30 57.32134 38.24713 22525 ft 473 kts 233°
2026-04-25 15:31 57.30192 38.19798 22749 ft 473 kts 233°
2026-04-25 15:31 57.28251 38.14897 22973 ft 474 kts 233°
2026-04-25 15:31 57.26325 38.10041 23194 ft 474 kts 233°
2026-04-25 15:31 57.24361 38.05101 23420 ft 474 kts 233°
2026-04-25 15:32 57.22435 38.00266 23641 ft 473 kts 233°
2026-04-25 15:32 57.20490 37.95392 23864 ft 473 kts 233°
2026-04-25 15:32 57.18543 37.90525 24087 ft 472 kts 233°
2026-04-25 15:33 57.14646 37.80814 24534 ft 471 kts 233°
2026-04-25 15:33 57.12716 37.76017 24756 ft 470 kts 233°
2026-04-25 15:33 57.10449 37.71787 24933 ft 468 kts 214°
2026-04-25 15:33 57.07524 37.69223 25203 ft 465 kts 201°
2026-04-25 15:34 57.04523 37.67107 25434 ft 465 kts 201°
2026-04-25 15:34 57.01474 37.65062 25659 ft 465 kts 200°
2026-04-25 15:34 56.98456 37.63044 25881 ft 465 kts 200°
2026-04-25 15:34 56.96397 37.61676 26032 ft 465 kts 200°
2026-04-25 15:35 56.89257 37.56962 26556 ft 464 kts 200°
2026-04-25 15:35 56.86195 37.54948 26782 ft 464 kts 200°
2026-04-25 15:35 56.83158 37.52956 27005 ft 463 kts 200°
2026-04-25 15:36 56.77139 37.49017 27448 ft 462 kts 200°
2026-04-25 15:36 56.74095 37.47031 27673 ft 461 kts 200°
2026-04-25 15:36 56.71113 37.45088 27894 ft 461 kts 200°
2026-04-25 15:37 56.68091 37.43122 28117 ft 460 kts 200°
2026-04-25 15:37 56.65111 37.41188 28338 ft 459 kts 200°
2026-04-25 15:37 56.62093 37.39232 28562 ft 458 kts 200°
2026-04-25 15:37 56.59111 37.37302 28783 ft 458 kts 200°
2026-04-25 15:38 56.56112 37.35364 29007 ft 457 kts 200°
2026-04-25 15:38 56.53124 37.33437 29229 ft 456 kts 199°
2026-04-25 15:38 56.50116 37.31501 29454 ft 455 kts 199°
2026-04-25 15:38 56.47116 37.29573 29678 ft 454 kts 199°
2026-04-25 15:39 56.44146 37.27666 29900 ft 454 kts 199°
2026-04-25 15:39 56.41167 37.25758 30124 ft 453 kts 199°
2026-04-25 15:39 56.38241 37.23886 30344 ft 452 kts 199°
2026-04-25 15:39 56.35265 37.21986 30568 ft 451 kts 199°
2026-04-25 15:40 56.33496 37.20859 30701 ft 450 kts 199°
2026-04-25 15:40 56.30562 37.18990 30922 ft 450 kts 199°
2026-04-25 15:40 56.26613 37.16480 31221 ft 448 kts 199°
2026-04-25 15:40 56.23689 37.14625 31443 ft 447 kts 199°
2026-04-25 15:41 56.20758 37.12769 31665 ft 446 kts 199°
2026-04-25 15:41 56.17854 37.10932 31886 ft 446 kts 199°
2026-04-25 15:41 56.14927 37.09085 32109 ft 445 kts 199°
2026-04-25 15:41 56.12007 37.07245 32332 ft 444 kts 199°
2026-04-25 15:42 56.09117 37.05426 32553 ft 443 kts 199°
2026-04-25 15:42 56.06245 37.03621 32774 ft 442 kts 199°
2026-04-25 15:42 56.03338 37.01797 32997 ft 441 kts 199°
2026-04-25 15:42 56.00462 36.99996 33218 ft 439 kts 199°
2026-04-25 15:43 55.97606 36.98210 33439 ft 438 kts 199°
2026-04-25 15:43 55.94737 36.96419 33591 ft 440 kts 199°
2026-04-25 15:43 55.88881 36.92772 33473 ft 449 kts 199°
2026-04-25 15:44 55.82982 36.89109 33377 ft 453 kts 199°
2026-04-25 15:44 55.77008 36.85413 33279 ft 456 kts 199°
2026-04-25 15:45 55.70875 36.82936 33186 ft 455 kts 187°
2026-04-25 15:45 55.65570 36.81799 33103 ft 457 kts 187°
2026-04-25 15:46 55.58159 36.80247 32989 ft 459 kts 187°
2026-04-25 15:46 55.52152 36.76929 32864 ft 456 kts 217°
2026-04-25 15:47 55.49942 36.73036 32856 ft 454 kts 229°
2026-04-25 15:47 55.47828 36.68809 32817 ft 456 kts 229°
2026-04-25 15:47 55.43656 36.60334 32720 ft 458 kts 229°
2026-04-25 15:48 55.39476 36.51854 32621 ft 460 kts 229°
2026-04-25 15:48 55.35292 36.43385 32523 ft 461 kts 229°
2026-04-25 15:49 55.31111 36.34952 32503 ft 460 kts 229°
2026-04-25 15:49 55.26910 36.26507 32503 ft 459 kts 229°
2026-04-25 15:50 55.22718 36.18110 32503 ft 459 kts 229°
2026-04-25 15:50 55.18528 36.09746 32503 ft 459 kts 229°
2026-04-25 15:51 55.15021 36.02767 32503 ft 459 kts 229°
2026-04-25 15:51 55.10123 35.93056 32504 ft 459 kts 229°
2026-04-25 15:52 55.05906 35.84723 32504 ft 459 kts 229°
2026-04-25 15:52 55.01712 35.76467 32504 ft 459 kts 229°
2026-04-25 15:53 54.97494 35.68191 32504 ft 459 kts 229°
2026-04-25 15:53 54.93247 35.59885 32504 ft 459 kts 229°
2026-04-25 15:54 54.89034 35.51676 32504 ft 459 kts 229°
2026-04-25 15:54 54.84774 35.43404 32505 ft 459 kts 229°
2026-04-25 15:55 54.80546 35.35220 32505 ft 459 kts 229°
2026-04-25 15:55 54.76277 35.26986 32505 ft 459 kts 228°
2026-04-25 15:56 54.74457 35.22536 32450 ft 457 kts 246°
2026-04-25 15:56 54.73685 35.17237 32485 ft 454 kts 265°
2026-04-25 15:56 54.73494 35.06415 32527 ft 456 kts 268°
2026-04-25 15:57 54.73314 34.95488 32528 ft 457 kts 268°
2026-04-25 15:57 54.73121 34.84502 32529 ft 458 kts 268°
2026-04-25 15:58 54.72914 34.73455 32529 ft 459 kts 268°
2026-04-25 15:58 54.72699 34.62476 32529 ft 459 kts 268°
2026-04-25 15:59 54.72473 34.51492 32529 ft 459 kts 268°
2026-04-25 15:59 54.72237 34.40512 32529 ft 459 kts 268°
2026-04-25 16:00 54.72033 34.31329 32529 ft 459 kts 267°
2026-04-25 16:00 54.71737 34.18574 32529 ft 459 kts 267°
2026-04-25 16:01 54.71470 34.07540 32529 ft 459 kts 267°
2026-04-25 16:01 54.71195 33.96558 32529 ft 459 kts 267°
2026-04-25 16:02 54.71122 33.85634 32481 ft 458 kts 281°
2026-04-25 16:02 54.72148 33.80443 32538 ft 455 kts 292°
2026-04-25 16:02 54.73306 33.75346 32318 ft 462 kts 292°
2026-04-25 16:03 54.74501 33.70156 31938 ft 464 kts 291°
2026-04-25 16:03 54.75697 33.64922 31564 ft 466 kts 292°
2026-04-25 16:03 54.76887 33.59691 31192 ft 467 kts 291°
2026-04-25 16:03 54.78075 33.54454 30821 ft 468 kts 291°
2026-04-25 16:04 54.79252 33.49252 30450 ft 466 kts 291°
2026-04-25 16:04 54.80423 33.44059 30080 ft 465 kts 291°
2026-04-25 16:04 54.81602 33.38818 29706 ft 465 kts 291°
2026-04-25 16:04 54.82767 33.33625 29335 ft 464 kts 291°
2026-04-25 16:05 54.83939 33.28388 28944 ft 465 kts 291°
2026-04-25 16:05 54.85109 33.23149 28360 ft 470 kts 291°
2026-04-25 16:05 54.87469 33.12536 27221 ft 475 kts 291°
2026-04-25 16:06 54.88459 33.07156 26621 ft 475 kts 279°
2026-04-25 16:06 54.88497 33.01459 26093 ft 474 kts 267°
2026-04-25 16:06 54.88379 32.95696 25521 ft 477 kts 268°
2026-04-25 16:06 54.88235 32.89988 24955 ft 479 kts 268°
2026-04-25 16:07 54.88092 32.84171 24380 ft 481 kts 268°
2026-04-25 16:07 54.87996 32.80338 24001 ft 481 kts 268°
2026-04-25 16:07 54.87848 32.72631 23385 ft 480 kts 269°
2026-04-25 16:07 54.87757 32.66849 23059 ft 477 kts 268°
2026-04-25 16:08 54.87179 32.61240 22666 ft 471 kts 249°
2026-04-25 16:08 54.85547 32.56497 22102 ft 453 kts 229°
2026-04-25 16:08 54.83160 32.53175 21515 ft 435 kts 209°
2026-04-25 16:08 54.80374 32.51590 20711 ft 420 kts 186°
2026-04-25 16:09 54.77499 32.51929 20137 ft 407 kts 169°
2026-04-25 16:09 54.74801 32.52857 19570 ft 396 kts 169°
2026-04-25 16:09 54.72133 32.53799 18984 ft 386 kts 169°
2026-04-25 16:09 54.69532 32.54718 18400 ft 378 kts 169°
2026-04-25 16:10 54.66990 32.55623 17817 ft 370 kts 167°
2026-04-25 16:10 54.64683 32.57424 17197 ft 362 kts 141°
2026-04-25 16:10 54.63153 32.60747 16630 ft 354 kts 115°
2026-04-25 16:10 54.62632 32.64814 16049 ft 347 kts 89°
2026-04-25 16:11 54.62915 32.68876 15501 ft 340 kts 82°
2026-04-25 16:11 54.63251 32.72882 14923 ft 336 kts 82°
2026-04-25 16:11 54.63597 32.76841 14291 ft 334 kts 81°
2026-04-25 16:11 54.64294 32.80589 13601 ft 331 kts 57°
2026-04-25 16:12 54.65935 32.83240 12968 ft 328 kts 28°
2026-04-25 16:12 54.68110 32.84254 12315 ft 325 kts
2026-04-25 16:12 54.70349 32.83775 11689 ft 322 kts 351°
2026-04-25 16:12 54.71802 32.83380 11262 ft 321 kts 351°
2026-04-25 16:13 54.74721 32.82536 10396 ft 319 kts 351°
2026-04-25 16:13 54.76888 32.81938 9752 ft 318 kts 351°
2026-04-25 16:13 54.79063 32.81313 9101 ft 317 kts 351°
2026-04-25 16:13 54.81250 32.80682 8446 ft 315 kts 351°
2026-04-25 16:14 54.83342 32.80076 8205 ft 300 kts 351°
2026-04-25 16:14 54.85307 32.79198 7967 ft 285 kts 331°
2026-04-25 16:14 54.86619 32.76835 7762 ft 269 kts 296°
2026-04-25 16:14 54.86922 32.73740 7551 ft 256 kts 262°
2026-04-25 16:15 54.86582 32.70793 7384 ft 243 kts 258°
2026-04-25 16:15 54.86234 32.68010 7189 ft 233 kts 258°
2026-04-25 16:15 54.85889 32.65305 6992 ft 224 kts 258°
2026-04-25 16:15 54.85555 32.62696 6795 ft 215 kts 258°
2026-04-25 16:16 54.85235 32.60200 6598 ft 207 kts 258°
2026-04-25 16:16 54.85046 32.57759 6388 ft 199 kts 268°
2026-04-25 16:16 54.84958 32.55429 6194 ft 192 kts 267°
2026-04-25 16:16 54.84877 32.53120 5906 ft 190 kts 266°
2026-04-25 16:17 54.84796 32.50865 5608 ft 189 kts 267°
2026-04-25 16:17 54.84714 32.48569 5288 ft 189 kts 267°
2026-04-25 16:17 54.84632 32.46287 4921 ft 192 kts 267°
2026-04-25 16:17 54.84552 32.44047 4628 ft 181 kts 267°
2026-04-25 16:18 54.84431 32.41898 4257 ft 175 kts 258°
2026-04-25 16:18 54.84246 32.40522 4137 ft 178 kts 258°
2026-04-25 16:18 54.83872 32.37577 4032 ft 191 kts 258°
2026-04-25 16:18 54.83577 32.35288 4105 ft 192 kts 258°
2026-04-25 16:19 54.83282 32.33004 4160 ft 194 kts 257°
2026-04-25 16:19 54.82988 32.30727 4204 ft 196 kts 257°
2026-04-25 16:19 54.82701 32.28451 4152 ft 190 kts 258°
2026-04-25 16:20 54.82744 32.24014 3848 ft 181 kts 276°
2026-04-25 16:20 54.82877 32.21852 3715 ft 179 kts 276°
2026-04-25 16:20 54.82951 32.17686 3404 ft 164 kts 265°
2026-04-25 16:21 54.82888 32.15792 3208 ft 153 kts 266°
2026-04-25 16:21 54.82821 32.13998 3018 ft 142 kts 266°
2026-04-25 16:21 54.82772 32.12273 2858 ft 148 kts 268°
2026-04-25 16:21 54.82766 32.11994 2849 ft 149 kts 268°
2026-04-25 16:22 54.82738 32.10866 2762 ft 154 kts 267°
2026-04-25 16:22 54.82677 32.08987 2347 ft 162 kts 266°
2026-04-25 16:22 54.82609 32.07001 1685 ft 166 kts 266°
2026-04-25 16:22 54.82544 32.05145 1042 ft 147 kts 266°
2026-04-25 16:23 54.82487 32.03569 848 ft 107 kts 266°
2026-04-25 16:23 54.82459 32.02676 837 ft 61 kts 268°
2026-04-25 16:23 54.82442 32.02114 834 ft 29 kts 266°
2026-04-25 16:23 54.82435 32.01921 834 ft 3 kts 268°
2026-04-25 16:24 54.82433 32.01841 834 ft 18 kts 265°
2026-04-25 16:24 54.82407 32.01685 832 ft 11 kts 228°
2026-04-25 16:24 54.82296 32.01671 831 ft 20 kts 177°
2026-04-25 16:24 54.82256 32.01772 833 ft 11 kts 86°
2026-04-25 16:25 54.82263 32.01881 835 ft 5 kts 83°
2026-04-25 16:25 54.82265 32.01930 835 ft 10 kts 93°
2026-04-25 16:25 54.82253 32.02211 835 ft 14 kts 88°
2026-04-25 16:25 54.82257 32.02365 834 ft 11 kts 86°
2026-04-25 16:26 54.82261 32.02493 834 ft 6 kts 96°
2026-04-25 16:26 54.82227 32.02533 834 ft 2 kts 172°
2026-04-25 16:26 54.82219 32.02534 834 ft 0 kts 178°